Zurück zum Katalog

STARLINK-36179

AktivKommunikationVLEO
NORAD 67119·PAYLOAD·🇺🇸 United States

Gestartet Dec 15, 2025 von Cape Canaveral Space Force Station

Loading…

Nächste Überflüge (nächste 24 Stunden)

TLE

AktuellSource: CelesTrak SupGP

Epoche: Sep 14, 2026, 21:43 UTC

1 67119C 25299T   26257.90534722 -.00021833  00000+0 -79075-3 0  2571
2 67119  43.0025 180.3276 0001354 267.7169 148.7001 15.27590324    18

Verfolge STARLINK-36179 in Echtzeit mit AllMySat

Download on the App Store